#timestamp,LO_Frequency,Hit 
1505019615.1,286047025.4,N
1505019616.0,286047025.4,N
1505019635.8,286047029.3,N
1505019655.6,286047027.6,N
1505019675.5,286047027.1,N
1505019695.3,286047030.9,N
1505019715.1,286047032.5,N
1505019735.9,286047035.4,N
1505019755.7,286047037.9,N
1505019775.5,286047032.0,N
1505019795.3,286047033.7,N
1505019815.2,286047035.6,N
1505019835.0,286047036.3,N
1505019835.9,286047036.3,N
1505019855.7,286047035.2,N
1505019875.6,286047036.4,N
1505019895.4,286047036.3,N
1505019915.3,286047036.3,P
1505019935.1,286047014.1,N
1505019936.0,286047014.1,N
1505019955.8,286047013.7,N
1505019975.6,286047014.9,N
1505019995.5,286047011.3,N
1505020015.3,286047016.3,N
1505020035.1,286047015.3,N
1505020055.9,286047013.1,N
1505020075.7,286047011.9,N
1505020095.5,286047008.4,N
1505020115.4,286047008.7,N
1505020135.2,286047008.6,N
1505020155.0,286047007.0,N
1505020155.9,286047007.0,N
1505020175.8,286047013.7,N
1505020195.6,286047011.6,N
1505020215.4,286047012.3,N
1505020235.3,286047012.4,N
1505020255.1,286047010.9,N
1505020256.0,286047010.9,N
1505020275.8,286047014.5,N
1505020295.7,286047014.5,N
1505020315.5,286047015.0,N
1505020335.3,286047017.9,P
1505020355.2,286047001.3,N
1505020375.9,286046998.1,N
1505020395.7,286047000.3,N
1505020415.6,286046998.6,N
1505020435.4,286046994.0,N
1505020455.2,286046989.6,N
1505020475.0,286046987.7,N
1505020475.9,286046987.7,N
1505020495.8,286046986.5,N
1505020515.6,286046981.8,N
1505020535.4,286046982.6,N
1505020555.3,286046985.0,N
1505020575.1,286046979.8,N
1505020595.8,286046974.8,N
1505020615.7,286046970.7,N
1505020635.5,286046968.1,N
1505020655.3,286046966.1,N
1505020675.2,286046968.8,N
1505020695.9,286046972.3,N
1505020715.7,286046973.6,N
1505020735.6,286046971.9,N
1505020755.4,286046970.9,N
1505020775.2,286046970.8,N
1505020795.0,286046968.2,N
1505020795.9,286046968.2,N
1505020815.8,286046971.5,N
1505020835.6,286046978.6,N
1505020855.4,286046975.5,N
1505020875.3,286046972.7,N
1505020895.1,286046971.3,N
1505020915.8,286046964.7,P
1505020935.7,286046982.6,N
1505020955.5,286046981.8,N
1505020975.4,286046977.3,P
1505020995.2,286047004.1,P
1505021015.0,286047005.7,N
1505021015.9,286047005.7,N
1505021035.8,286047005.2,N
1505021055.6,286047007.7,N
1505021075.4,286047005.3,N
1505021095.2,286047001.7,N
1505021115.1,286047003.6,N
1505021116.0,286047003.6,N
1505021135.8,286047006.3,N
1505021155.6,286047007.9,N
1505021175.5,286047003.5,N
1505021195.3,286047004.3,N
1505021215.1,286047004.2,N
1505021235.9,286047007.5,N
1505021255.7,286047003.1,N
1505021275.5,286047002.0,N
1505021295.4,286047004.7,N
1505021315.2,286047003.1,N
1505021335.0,286047003.3,N
1505021335.9,286047003.3,N
1505021355.8,286047001.9,N
1505021375.6,286047007.1,N
1505021395.4,286047015.3,N
1505021415.3,286047018.4,N
1505021435.1,286047020.9,N
1505021436.0,286047020.9,N
1505021455.8,286047025.6,N
1505021475.7,286047029.4,P
1505021495.5,286047028.1,N
1505021515.3,286047028.8,N
1505021535.2,286047027.9,N
1505021555.9,286047026.0,N
1505021575.7,286047027.9,P
1505021595.6,286047001.3,N
1505021615.4,286047002.4,N
1505021635.2,286047001.6,N
1505021655.1,286047002.1,N
1505021656.0,286047002.1,N
1505021675.8,286047005.4,N
1505021695.6,286047006.0,N
1505021715.5,286047003.4,N
1505021735.3,286047005.1,N
1505021755.1,286047007.5,N
1505021775.8,286047005.4,N
1505021795.7,286047005.5,N
1505021815.5,286047003.4,N
1505021835.3,286047005.4,N
1505021855.2,286047004.5,N
1505021875.0,286047008.6,N
1505021875.9,286047008.6,N
1505021895.7,286047007.5,N
1505021915.6,286047009.0,N
1505021935.4,286047007.4,N
1505021955.2,286047005.3,N
1505021975.1,286047005.7,N
1505021976.0,286047005.7,N
1505021995.8,286047005.1,N
1505022015.6,286047004.9,N
1505022035.5,286047008.7,N
1505022055.3,286047010.3,N
1505022075.1,286047008.7,N
1505022095.9,286047009.2,N
1505022115.7,286047011.2,N
1505022135.5,286047010.9,P
1505022155.4,286047007.5,N
1505022175.2,286047006.7,P
1505022195.0,286047006.2,P
1505022195.9,286047006.2,P
1505022215.8,286047000.2,N
1505022235.6,286046999.8,N
1505022255.4,286047000.1,N
1505022275.3,286047000.1,N
1505022295.1,286047002.6,N
1505022296.0,286047002.6,N
1505022315.8,286047002.2,N
1505022335.7,286047001.4,N
1505022355.5,286047006.5,N
1505022375.3,286047005.6,N
1505022395.2,286046998.7,N
1505022415.9,286046992.3,N
1505022435.7,286046987.0,P
1505022455.6,286046979.0,N
1505022475.4,286046978.9,N
1505022495.2,286046981.7,N
1505022515.0,286046978.0,N
1505022516.0,286046978.0,N
1505022535.8,286046977.1,N
1505022555.6,286046975.6,P
1505022575.5,286046988.6,P
1505022595.3,286046989.3,N
1505022615.1,286046987.2,N
1505022635.8,286046986.7,N
1505022655.7,286046985.7,P
1505022675.5,286047001.2,P
1505022695.4,286046999.4,N
1505022715.2,286046995.5,N
1505022735.0,286046995.0,N
1505022735.9,286046995.0,N
1505022755.7,286046997.1,N
1505022775.6,286046995.5,N
1505022795.4,286046994.8,N
1505022815.2,286046993.6,N
1505022835.1,286046995.9,N
1505022836.0,286046995.9,N
1505022855.8,286046992.3,N
1505022875.6,286046993.2,N
1505022895.5,286046991.7,N
1505022915.3,286046998.7,N
1505022935.1,286047000.4,N
1505022955.9,286047003.8,N
1505022975.7,286047001.7,N
1505022995.5,286047001.2,N
1505023015.4,286047000.2,N
1505023035.2,286046995.9,N
1505023055.0,286046996.4,N
1505023055.9,286046996.4,N
1505023075.7,286046995.2,N
1505023095.6,286046995.4,N
1505023115.4,286046995.8,N
1505023135.2,286046995.5,N
1505023155.1,286046993.7,N
1505023156.0,286046993.7,N
1505023175.8,286046994.1,N
1505023195.6,286046996.1,N
